Simultaneous Nadir Overpasses (SNOs) Predictions

Prediction of SNOs between GOES-16 and TERRA Satellite Orbit:

Table of predicted SNOs for the next 14.0 days since TLE Epoch: 12/31/2022
Index Date Time (GOES-16) GOES-16 Lat,Lon TERRA Lat,Lon Distance(km) Time Diff (sec)
1 01/01/2023 03:10:05 0.02, -75.18 0.06, -74.88 33.87 80
2 01/03/2023 02:54:21 0.02, -75.19 0.91, -71.08 467.81 80
3 01/03/2023 15:17:20 -0.02, -75.21 0.17, -76.01 91.85 80
4 01/05/2023 14:58:54 -0.02, -75.22 -0.64, -72.20 342.87 80
5 01/06/2023 03:22:03 0.02, -75.21 -0.38, -77.18 223.38 80
6 01/08/2023 03:03:36 0.02, -75.23 0.39, -73.36 212.14 80
7 01/08/2023 15:26:37 -0.02, -75.25 0.61, -78.31 347.24 80
8 01/10/2023 15:08:10 -0.02, -75.28 -0.17, -74.49 89.45 80
9 01/11/2023 03:31:18 0.01, -75.28 -0.90, -79.46 476.14 80
10 01/13/2023 03:15:32 0.01, -75.32 -0.03, -75.66 38.63 80
